Time,TemperatureF,DewpointF,PressureIn,WindDirection,WindDirectionDegrees,WindSpeedMPH,WindSpeedGustMPH,Humidity,HourlyPrecipIn,Conditions,Clouds,dailyrainin,SoftwareType,DateUTC
2013-01-12 00:00:00,70.3,67.6,30.19,East,80,3.0,6.0,91,0.00,,,0.00,meteohub,2013-01-12 05:00:00,
2013-01-12 00:01:00,70.3,67.6,30.19,East,80,3.0,6.0,91,0.00,,,0.00,meteohub,2013-01-12 05:01:00,
2013-01-12 00:03:00,70.3,67.6,30.19,East,80,2.0,6.0,91,0.00,,,0.00,meteohub,2013-01-12 05:03:00,
2013-01-12 00:05:00,70.2,67.5,30.19,East,80,3.0,6.0,91,0.00,,,0.00,meteohub,2013-01-12 05:05:00,
2013-01-12 00:10:00,70.2,67.5,30.19,East,80,6.0,7.0,91,0.00,,,0.00,meteohub,2013-01-12 05:10:00,
2013-01-12 00:15:00,70.2,67.5,30.19,East,80,2.0,7.0,91,0.00,,,0.00,meteohub,2013-01-12 05:15:00,
2013-01-12 00:20:00,70.2,67.5,30.19,East,97,10.0,10.0,91,0.00,,,0.00,meteohub,2013-01-12 05:20:00,
2013-01-12 00:25:00,70.2,67.5,30.18,East,92,8.0,10.0,91,0.00,,,0.00,meteohub,2013-01-12 05:25:00,
2013-01-12 00:31:00,70.3,67.6,30.18,East,85,7.0,11.0,91,0.00,,,0.00,meteohub,2013-01-12 05:31:00,
2013-01-12 00:36:00,70.3,67.6,30.18,East,97,11.0,14.0,91,0.00,,,0.00,meteohub,2013-01-12 05:36:00,
2013-01-12 00:41:00,70.3,67.6,30.18,East,82,8.0,14.0,91,0.00,,,0.00,meteohub,2013-01-12 05:41:00,
2013-01-12 00:47:00,70.3,67.6,30.18,ENE,78,9.0,14.0,91,0.00,,,0.00,meteohub,2013-01-12 05:47:00,
2013-01-12 00:52:00,70.3,67.6,30.18,ENE,78,10.0,16.0,91,0.00,,,0.00,meteohub,2013-01-12 05:52:00,
2013-01-12 00:57:00,70.2,67.5,30.18,ESE,103,10.0,16.0,91,0.00,,,0.00,meteohub,2013-01-12 05:57:00,
2013-01-12 01:02:00,70.2,67.5,30.18,East,98,11.0,16.0,91,0.00,,,0.00,meteohub,2013-01-12 06:02:00,
2013-01-12 01:07:00,70.2,67.5,30.18,East,90,8.0,17.0,91,0.00,,,0.00,meteohub,2013-01-12 06:07:00,
2013-01-12 01:12:00,70.0,67.3,30.18,East,90,9.0,17.0,91,0.00,,,0.00,meteohub,2013-01-12 06:12:00,
2013-01-12 01:17:00,69.8,67.1,30.17,East,101,7.0,17.0,91,0.00,,,0.00,meteohub,2013-01-12 06:17:00,
2013-01-12 01:22:00,69.8,67.1,30.17,ENE,67,8.0,15.0,91,0.00,,,0.00,meteohub,2013-01-12 06:22:00,
2013-01-12 01:28:00,69.6,66.9,30.17,East,96,13.0,16.0,91,0.00,,,0.00,meteohub,2013-01-12 06:28:00,
2013-01-12 01:33:00,69.6,66.9,30.17,East,99,10.0,16.0,91,0.00,,,0.00,meteohub,2013-01-12 06:33:00,
2013-01-12 01:38:00,69.6,66.9,30.17,East,88,13.0,16.0,91,0.00,,,0.00,meteohub,2013-01-12 06:38:00,
2013-01-12 01:43:00,69.6,66.9,30.17,East,93,10.0,16.0,91,0.00,,,0.00,meteohub,2013-01-12 06:43:00,
2013-01-12 01:48:00,69.4,66.7,30.17,East,82,6.0,16.0,91,0.00,,,0.00,meteohub,2013-01-12 06:48:00,
2013-01-12 01:53:00,69.4,67.1,30.17,ESE,103,8.0,15.0,92,0.00,,,0.00,meteohub,2013-01-12 06:53:00,
2013-01-12 01:58:00,69.3,66.9,30.17,East,101,8.0,14.0,92,0.00,,,0.00,meteohub,2013-01-12 06:58:00,
2013-01-12 02:03:00,69.3,66.9,30.17,East,89,8.0,13.0,92,0.00,,,0.00,meteohub,2013-01-12 07:03:00,
2013-01-12 02:09:00,69.3,66.9,30.17,East,90,3.0,11.0,92,0.00,,,0.00,meteohub,2013-01-12 07:09:00,
2013-01-12 02:14:00,69.1,66.7,30.17,East,94,6.0,11.0,92,0.00,,,0.00,meteohub,2013-01-12 07:14:00,
2013-01-12 02:19:00,69.1,66.7,30.17,East,84,7.0,11.0,92,0.00,,,0.00,meteohub,2013-01-12 07:19:00,
2013-01-12 02:24:00,68.9,66.6,30.17,ENE,67,2.0,9.0,92,0.00,,,0.00,meteohub,2013-01-12 07:24:00,
2013-01-12 02:29:00,68.7,66.4,30.17,East,94,7.0,9.0,92,0.00,,,0.00,meteohub,2013-01-12 07:29:00,
2013-01-12 02:34:00,68.7,66.6,30.16,ENE,74,3.0,9.0,93,0.00,,,0.00,meteohub,2013-01-12 07:34:00,
2013-01-12 02:40:00,68.7,66.6,30.16,East,91,3.0,7.0,93,0.00,,,0.00,meteohub,2013-01-12 07:40:00,
2013-01-12 02:45:00,68.5,66.4,30.16,East,92,5.0,9.0,93,0.00,,,0.00,meteohub,2013-01-12 07:45:00,
2013-01-12 02:50:00,68.5,66.4,30.16,East,84,2.0,9.0,93,0.00,,,0.00,meteohub,2013-01-12 07:50:00,
2013-01-12 02:55:00,68.5,66.4,30.16,ENE,76,3.0,9.0,93,0.00,,,0.00,meteohub,2013-01-12 07:55:00,
2013-01-12 03:00:00,68.5,66.4,30.16,East,100,8.0,8.0,93,0.00,,,0.00,meteohub,2013-01-12 08:00:00,
2013-01-12 03:05:00,68.5,66.4,30.16,ENE,78,3.0,9.0,93,0.00,,,0.00,meteohub,2013-01-12 08:05:00,
2013-01-12 03:10:00,68.4,66.2,30.16,ENE,78,3.0,9.0,93,0.00,,,0.00,meteohub,2013-01-12 08:10:00,
2013-01-12 03:15:00,68.4,66.2,30.16,East,82,3.0,8.0,93,0.00,,,0.00,meteohub,2013-01-12 08:15:00,
2013-01-12 03:20:00,68.4,66.2,30.16,East,84,3.0,7.0,93,0.00,,,0.00,meteohub,2013-01-12 08:20:00,
2013-01-12 03:25:00,68.2,66.0,30.16,ENE,76,2.0,7.0,93,0.00,,,0.00,meteohub,2013-01-12 08:25:00,
2013-01-12 03:31:00,68.2,66.0,30.16,ENE,74,1.0,6.0,93,0.00,,,0.00,meteohub,2013-01-12 08:31:00,
2013-01-12 03:36:00,68.2,66.4,30.16,ENE,73,4.0,5.0,94,0.00,,,0.00,meteohub,2013-01-12 08:36:00,
2013-01-12 03:41:00,68.2,66.4,30.16,ENE,71,2.0,6.0,94,0.00,,,0.00,meteohub,2013-01-12 08:41:00,
2013-01-12 03:46:00,68.2,66.4,30.16,ESE,102,7.0,7.0,94,0.00,,,0.00,meteohub,2013-01-12 08:46:00,
2013-01-12 03:51:00,68.2,66.4,30.15,East,93,3.0,8.0,94,0.00,,,0.00,meteohub,2013-01-12 08:51:00,
2013-01-12 03:56:00,68.2,66.4,30.15,ENE,78,3.0,8.0,94,0.00,,,0.00,meteohub,2013-01-12 08:56:00,
2013-01-12 04:01:00,68.2,66.4,30.15,East,97,5.0,8.0,94,0.00,,,0.00,meteohub,2013-01-12 09:01:00,
2013-01-12 04:06:00,68.2,66.4,30.15,East,101,5.0,8.0,94,0.00,,,0.00,meteohub,2013-01-12 09:06:00,
2013-01-12 04:11:00,68.0,66.2,30.15,East,88,2.0,8.0,94,0.00,,,0.00,meteohub,2013-01-12 09:11:00,
2013-01-12 04:16:00,67.8,66.0,30.15,ENE,68,4.0,8.0,94,0.00,,,0.00,meteohub,2013-01-12 09:16:00,
2013-01-12 04:22:00,67.8,66.0,30.15,ENE,76,1.0,7.0,94,0.00,,,0.00,meteohub,2013-01-12 09:22:00,
2013-01-12 04:27:00,68.0,66.2,30.15,East,84,3.0,7.0,94,0.00,,,0.00,meteohub,2013-01-12 09:27:00,
2013-01-12 04:32:00,67.8,66.0,30.14,East,84,2.0,7.0,94,0.00,,,0.00,meteohub,2013-01-12 09:32:00,
2013-01-12 04:37:00,67.8,66.0,30.15,East,84,2.0,6.0,94,0.00,,,0.00,meteohub,2013-01-12 09:37:00,
2013-01-12 04:42:00,67.8,66.0,30.15,East,84,0.0,6.0,94,0.00,,,0.00,meteohub,2013-01-12 09:42:00,
2013-01-12 04:47:00,67.6,65.8,30.15,East,84,0.0,5.0,94,0.00,,,0.00,meteohub,2013-01-12 09:47:00,
2013-01-12 04:52:00,67.5,65.7,30.15,East,84,0.0,3.0,94,0.00,,,0.00,meteohub,2013-01-12 09:52:00,
2013-01-12 04:57:00,67.5,65.7,30.15,East,84,0.0,3.0,94,0.00,,,0.00,meteohub,2013-01-12 09:57:00,
2013-01-12 05:02:00,67.5,65.7,30.15,East,84,1.0,5.0,94,0.00,,,0.00,meteohub,2013-01-12 10:02:00,
2013-01-12 05:07:00,67.5,65.7,30.15,East,84,5.0,6.0,94,0.00,,,0.00,meteohub,2013-01-12 10:07:00,
2013-01-12 05:12:00,67.6,65.8,30.15,East,85,1.0,6.0,94,0.00,,,0.00,meteohub,2013-01-12 10:12:00,
2013-01-12 05:17:00,67.6,65.8,30.14,East,85,2.0,8.0,94,0.00,,,0.00,meteohub,2013-01-12 10:17:00,
2013-01-12 05:22:00,67.6,65.8,30.14,East,85,1.0,8.0,94,0.00,,,0.00,meteohub,2013-01-12 10:22:00,
2013-01-12 05:27:00,67.8,66.0,30.14,East,84,1.0,8.0,94,0.00,,,0.00,meteohub,2013-01-12 10:27:00,
2013-01-12 05:32:00,67.8,66.0,30.14,East,85,3.0,6.0,94,0.00,,,0.00,meteohub,2013-01-12 10:32:00,
2013-01-12 05:37:00,67.8,66.0,30.14,ENE,72,1.0,7.0,94,0.00,,,0.00,meteohub,2013-01-12 10:37:00,
2013-01-12 05:42:00,67.8,66.0,30.14,ENE,72,1.0,7.0,94,0.00,,,0.00,meteohub,2013-01-12 10:42:00,
2013-01-12 05:47:00,67.6,65.8,30.14,ENE,72,0.0,7.0,94,0.00,,,0.00,meteohub,2013-01-12 10:47:00,
2013-01-12 05:52:00,67.5,65.7,30.14,ENE,72,0.0,7.0,94,0.00,,,0.00,meteohub,2013-01-12 10:52:00,
2013-01-12 05:57:00,67.3,65.5,30.15,ENE,72,0.0,3.0,94,0.00,,,0.00,meteohub,2013-01-12 10:57:00,
2013-01-12 06:02:00,67.1,65.3,30.15,ENE,72,0.0,2.0,94,0.00,,,0.00,meteohub,2013-01-12 11:02:00,
2013-01-12 06:08:00,66.9,65.1,30.15,ENE,72,0.0,1.0,94,0.00,,,0.00,meteohub,2013-01-12 11:08:00,
2013-01-12 06:13:00,66.9,65.1,30.15,ENE,72,0.0,0.0,94,0.00,,,0.00,meteohub,2013-01-12 11:13:00,
2013-01-12 06:18:00,66.9,65.1,30.15,ENE,72,0.0,3.0,94,0.00,,,0.00,meteohub,2013-01-12 11:18:00,
2013-01-12 06:23:00,66.9,65.1,30.16,ENE,72,0.0,3.0,94,0.00,,,0.00,meteohub,2013-01-12 11:23:00,
2013-01-12 06:28:00,66.7,64.9,30.15,ENE,72,1.0,3.0,94,0.00,,,0.00,meteohub,2013-01-12 11:28:00,
2013-01-12 06:33:00,66.7,64.9,30.16,ENE,72,0.0,3.0,94,0.00,,,0.00,meteohub,2013-01-12 11:33:00,
2013-01-12 06:38:00,66.7,64.9,30.16,ENE,72,0.0,3.0,94,0.00,,,0.00,meteohub,2013-01-12 11:38:00,
2013-01-12 06:44:00,66.7,64.9,30.16,ENE,72,1.0,3.0,94,0.00,,,0.00,meteohub,2013-01-12 11:44:00,
2013-01-12 06:49:00,66.7,65.3,30.16,ENE,72,2.0,3.0,95,0.00,,,0.00,meteohub,2013-01-12 11:49:00,
2013-01-12 06:54:00,66.7,64.9,30.16,ENE,72,1.0,3.0,94,0.00,,,0.00,meteohub,2013-01-12 11:54:00,
2013-01-12 06:59:00,66.7,64.9,30.16,ENE,72,0.0,4.0,94,0.00,,,0.00,meteohub,2013-01-12 11:59:00,
2013-01-12 07:04:00,66.7,64.9,30.16,ENE,72,0.0,5.0,94,0.00,,,0.00,meteohub,2013-01-12 12:04:00,
2013-01-12 07:09:00,66.6,64.8,30.17,ENE,72,0.0,5.0,94,0.00,,,0.00,meteohub,2013-01-12 12:09:00,
2013-01-12 07:14:00,66.6,64.8,30.17,ENE,72,0.0,5.0,94,0.00,,,0.00,meteohub,2013-01-12 12:14:00,
2013-01-12 07:19:00,66.7,64.9,30.17,ENE,72,1.0,4.0,94,0.00,,,0.00,meteohub,2013-01-12 12:19:00,
2013-01-12 07:24:00,66.9,65.5,30.17,ENE,71,2.0,4.0,95,0.00,,,0.00,meteohub,2013-01-12 12:24:00,
2013-01-12 07:29:00,67.3,65.8,30.17,ENE,78,1.0,5.0,95,0.00,,,0.00,meteohub,2013-01-12 12:29:00,
2013-01-12 07:34:00,67.3,65.5,30.17,ENE,78,0.0,5.0,94,0.00,,,0.00,meteohub,2013-01-12 12:34:00,
2013-01-12 07:40:00,67.3,65.5,30.17,ENE,78,0.0,5.0,94,0.00,,,0.00,meteohub,2013-01-12 12:40:00,
2013-01-12 07:45:00,67.3,65.5,30.17,ENE,78,0.0,5.0,94,0.00,,,0.00,meteohub,2013-01-12 12:45:00,
2013-01-12 07:50:00,67.3,65.5,30.17,ENE,78,1.0,4.0,94,0.00,,,0.00,meteohub,2013-01-12 12:50:00,
2013-01-12 07:55:00,67.5,65.7,30.17,ENE,78,2.0,4.0,94,0.00,,,0.00,meteohub,2013-01-12 12:55:00,
2013-01-12 08:00:00,67.5,65.7,30.17,ENE,78,0.0,4.0,94,0.00,,,0.00,meteohub,2013-01-12 13:00:00,
2013-01-12 08:05:00,67.6,65.8,30.17,ENE,76,1.0,4.0,94,0.00,,,0.00,meteohub,2013-01-12 13:05:00,
2013-01-12 08:10:00,68.0,66.2,30.18,ENE,74,0.0,5.0,94,0.00,,,0.00,meteohub,2013-01-12 13:10:00,
2013-01-12 08:15:00,68.2,66.0,30.18,ENE,74,1.0,5.0,93,0.00,,,0.00,meteohub,2013-01-12 13:15:00,
2013-01-12 08:20:00,68.4,66.2,30.18,ENE,73,2.0,7.0,93,0.00,,,0.00,meteohub,2013-01-12 13:20:00,
2013-01-12 08:25:00,68.5,66.2,30.18,ENE,71,0.0,7.0,92,0.00,,,0.00,meteohub,2013-01-12 13:25:00,
2013-01-12 08:30:00,68.7,66.4,30.18,ENE,68,1.0,8.0,92,0.00,,,0.00,meteohub,2013-01-12 13:30:00,
2013-01-12 08:35:00,68.7,66.0,30.18,ENE,69,0.0,8.0,91,0.00,,,0.00,meteohub,2013-01-12 13:35:00,
2013-01-12 08:41:00,69.1,66.4,30.18,NE,55,0.0,8.0,91,0.00,,,0.00,meteohub,2013-01-12 13:41:00,
2013-01-12 08:46:00,69.3,66.6,30.18,ENE,64,0.0,7.0,91,0.00,,,0.00,meteohub,2013-01-12 13:46:00,
2013-01-12 08:51:00,69.4,66.4,30.18,ENE,60,1.0,8.0,90,0.00,,,0.00,meteohub,2013-01-12 13:51:00,
2013-01-12 08:56:00,69.4,66.4,30.18,ENE,61,0.0,8.0,90,0.00,,,0.00,meteohub,2013-01-12 13:56:00,
2013-01-12 09:01:00,69.6,66.6,30.18,ENE,70,0.0,8.0,90,0.00,,,0.00,meteohub,2013-01-12 14:01:00,
2013-01-12 09:06:00,69.8,66.7,30.18,ENE,67,0.0,7.0,90,0.00,,,0.00,meteohub,2013-01-12 14:06:00,
2013-01-12 09:11:00,70.0,66.9,30.18,ENE,66,1.0,7.0,90,0.00,,,0.00,meteohub,2013-01-12 14:11:00,
2013-01-12 09:17:00,70.2,66.7,30.19,ENE,66,2.0,5.0,89,0.00,,,0.00,meteohub,2013-01-12 14:17:00,
2013-01-12 09:22:00,70.2,67.1,30.19,ENE,67,2.0,7.0,90,0.00,,,0.00,meteohub,2013-01-12 14:22:00,
2013-01-12 09:27:00,70.3,66.9,30.19,ENE,69,2.0,7.0,89,0.00,,,0.00,meteohub,2013-01-12 14:27:00,
2013-01-12 09:32:00,70.3,66.9,30.19,ENE,68,2.0,7.0,89,0.00,,,0.00,meteohub,2013-01-12 14:32:00,
2013-01-12 09:37:00,70.5,67.1,30.19,ENE,73,2.0,7.0,89,0.00,,,0.00,meteohub,2013-01-12 14:37:00,
2013-01-12 09:42:00,70.5,67.1,30.19,ENE,61,4.0,7.0,89,0.00,,,0.00,meteohub,2013-01-12 14:42:00,
2013-01-12 09:47:00,70.9,67.5,30.19,ENE,69,2.0,7.0,89,0.00,,,0.00,meteohub,2013-01-12 14:47:00,
2013-01-12 09:52:00,71.1,67.6,30.19,ENE,67,1.0,7.0,89,0.00,,,0.00,meteohub,2013-01-12 14:52:00,
2013-01-12 09:57:00,71.1,67.6,30.18,ENE,68,3.0,7.0,89,0.00,,,0.00,meteohub,2013-01-12 14:57:00,
2013-01-12 10:02:00,71.2,67.5,30.19,ENE,61,4.0,5.0,88,0.00,,,0.00,meteohub,2013-01-12 15:02:00,
2013-01-12 10:07:00,71.8,68.0,30.19,ENE,61,1.0,5.0,88,0.00,,,0.00,meteohub,2013-01-12 15:07:00,
2013-01-12 10:12:00,72.0,67.8,30.19,ENE,78,0.0,5.0,87,0.00,,,0.00,meteohub,2013-01-12 15:12:00,
2013-01-12 10:17:00,72.1,68.0,30.19,ENE,78,0.0,5.0,87,0.00,,,0.00,meteohub,2013-01-12 15:17:00,
2013-01-12 10:22:00,72.7,68.2,30.18,East,84,2.0,5.0,86,0.00,,,0.00,meteohub,2013-01-12 15:22:00,
2013-01-12 10:27:00,73.0,68.2,30.18,East,86,5.0,9.0,85,0.00,,,0.00,meteohub,2013-01-12 15:27:00,
2013-01-12 10:32:00,73.2,68.2,30.18,East,92,8.0,9.0,84,0.00,,,0.00,meteohub,2013-01-12 15:32:00,
2013-01-12 10:37:00,73.2,68.2,30.18,ESE,103,8.0,11.0,84,0.00,,,0.00,meteohub,2013-01-12 15:37:00,
2013-01-12 10:42:00,73.2,68.2,30.18,East,82,7.0,11.0,84,0.00,,,0.00,meteohub,2013-01-12 15:42:00,
2013-01-12 10:47:00,73.6,68.2,30.17,ESE,105,8.0,11.0,83,0.00,,,0.00,meteohub,2013-01-12 15:47:00,
2013-01-12 10:52:00,73.6,68.2,30.17,ENE,71,2.0,11.0,83,0.00,,,0.00,meteohub,2013-01-12 15:52:00,
2013-01-12 10:57:00,73.9,68.4,30.17,East,79,5.0,11.0,83,0.00,,,0.00,meteohub,2013-01-12 15:57:00,
2013-01-12 11:02:00,74.3,68.4,30.17,East,80,3.0,9.0,82,0.00,,,0.00,meteohub,2013-01-12 16:02:00,
2013-01-12 11:07:00,74.7,68.4,30.17,East,98,2.0,8.0,81,0.00,,,0.00,meteohub,2013-01-12 16:07:00,
2013-01-12 11:12:00,74.8,68.9,30.17,East,82,1.0,8.0,82,0.00,,,0.00,meteohub,2013-01-12 16:12:00,
2013-01-12 11:17:00,75.4,69.1,30.17,East,93,2.0,8.0,81,0.00,,,0.00,meteohub,2013-01-12 16:17:00,
2013-01-12 11:22:00,75.6,69.3,30.16,East,82,0.0,8.0,81,0.00,,,0.00,meteohub,2013-01-12 16:22:00,
2013-01-12 11:27:00,76.3,69.6,30.16,ENE,63,1.0,7.0,80,0.00,,,0.00,meteohub,2013-01-12 16:27:00,
2013-01-12 11:32:00,76.6,69.6,30.15,ENE,59,2.0,7.0,79,0.00,,,0.00,meteohub,2013-01-12 16:32:00,
2013-01-12 11:37:00,77.2,69.8,30.15,ENE,69,0.0,5.0,78,0.00,,,0.00,meteohub,2013-01-12 16:37:00,
2013-01-12 11:42:00,77.4,70.3,30.15,ENE,69,3.0,5.0,79,0.00,,,0.00,meteohub,2013-01-12 16:42:00,
2013-01-12 11:47:00,77.7,70.3,30.15,NE,51,3.0,7.0,78,0.00,,,0.00,meteohub,2013-01-12 16:47:00,
2013-01-12 11:52:00,78.1,70.7,30.14,NE,56,1.0,7.0,78,0.00,,,0.00,meteohub,2013-01-12 16:52:00,
2013-01-12 11:57:00,78.4,70.7,30.14,ENE,70,0.0,7.0,77,0.00,,,0.00,meteohub,2013-01-12 16:57:00,
2013-01-12 12:02:00,78.6,70.3,30.14,ENE,70,2.0,7.0,76,0.00,,,0.00,meteohub,2013-01-12 17:02:00,
2013-01-12 12:07:00,79.0,70.7,30.14,NE,50,2.0,7.0,76,0.00,,,0.00,meteohub,2013-01-12 17:07:00,
2013-01-12 12:12:00,79.2,70.9,30.13,ENE,57,1.0,7.0,76,0.00,,,0.00,meteohub,2013-01-12 17:12:00,
2013-01-12 12:17:00,79.3,71.1,30.13,ENE,59,2.0,7.0,76,0.00,,,0.00,meteohub,2013-01-12 17:17:00,
2013-01-12 12:22:00,79.7,71.1,30.13,ENE,69,1.0,7.0,75,0.00,,,0.00,meteohub,2013-01-12 17:22:00,
2013-01-12 12:27:00,80.1,70.7,30.13,ENE,61,4.0,7.0,73,0.00,,,0.00,meteohub,2013-01-12 17:27:00,
2013-01-12 12:32:00,80.2,71.2,30.12,NE,55,0.0,5.0,74,0.00,,,0.00,meteohub,2013-01-12 17:32:00,
2013-01-12 12:37:00,80.4,70.9,30.12,East,79,1.0,5.0,73,0.00,,,0.00,meteohub,2013-01-12 17:37:00,
2013-01-12 12:42:00,80.6,71.1,30.12,ENE,67,2.0,7.0,73,0.00,,,0.00,meteohub,2013-01-12 17:42:00,
2013-01-12 12:47:00,80.8,70.9,30.12,ENE,63,3.0,7.0,72,0.00,,,0.00,meteohub,2013-01-12 17:47:00,
2013-01-12 12:52:00,81.0,70.7,30.12,ENE,72,3.0,7.0,71,0.00,,,0.00,meteohub,2013-01-12 17:52:00,
2013-01-12 12:57:00,80.8,70.5,30.12,East,99,5.0,8.0,71,0.00,,,0.00,meteohub,2013-01-12 17:57:00,
2013-01-12 13:02:00,80.6,70.7,30.11,East,89,5.0,8.0,72,0.00,,,0.00,meteohub,2013-01-12 18:02:00,
2013-01-12 13:07:00,80.8,70.9,30.11,East,87,6.0,8.0,72,0.00,,,0.00,meteohub,2013-01-12 18:07:00,
2013-01-12 13:12:00,80.4,70.2,30.11,ESE,102,8.0,9.0,71,0.00,,,0.00,meteohub,2013-01-12 18:12:00,
2013-01-12 13:17:00,80.2,70.3,30.11,East,82,5.0,9.0,72,0.00,,,0.00,meteohub,2013-01-12 18:17:00,
2013-01-12 13:22:00,80.2,71.2,30.11,ENE,57,3.0,9.0,74,0.00,,,0.00,meteohub,2013-01-12 18:22:00,
2013-01-12 13:27:00,80.8,70.9,30.10,ENE,72,2.0,9.0,72,0.00,,,0.00,meteohub,2013-01-12 18:27:00,
2013-01-12 13:32:00,81.7,70.9,30.11,ENE,63,0.0,9.0,70,0.00,,,0.00,meteohub,2013-01-12 18:32:00,
2013-01-12 13:37:00,82.0,70.3,30.10,NE,53,2.0,8.0,68,0.00,,,0.00,meteohub,2013-01-12 18:37:00,
2013-01-12 13:42:00,82.2,70.5,30.10,ENE,60,0.0,6.0,68,0.00,,,0.00,meteohub,2013-01-12 18:42:00,
2013-01-12 13:47:00,82.6,70.9,30.11,ENE,66,0.0,6.0,68,0.00,,,0.00,meteohub,2013-01-12 18:47:00,
2013-01-12 13:52:00,82.8,71.1,30.10,ENE,67,1.0,4.0,68,0.00,,,0.00,meteohub,2013-01-12 18:52:00,
2013-01-12 13:57:00,83.1,71.1,30.10,ENE,69,2.0,4.0,67,0.00,,,0.00,meteohub,2013-01-12 18:57:00,
2013-01-12 14:02:00,83.1,70.5,30.10,ENE,57,4.0,4.0,66,0.00,,,0.00,meteohub,2013-01-12 19:02:00,
2013-01-12 14:07:00,82.9,70.9,30.09,ENE,77,0.0,5.0,67,0.00,,,0.00,meteohub,2013-01-12 19:07:00,
2013-01-12 14:12:00,82.8,71.1,30.09,ENE,74,3.0,5.0,68,0.00,,,0.00,meteohub,2013-01-12 19:12:00,
2013-01-12 14:17:00,82.8,70.7,30.09,ENE,69,2.0,5.0,67,0.00,,,0.00,meteohub,2013-01-12 19:17:00,
2013-01-12 14:22:00,82.9,70.9,30.09,ENE,67,2.0,5.0,67,0.00,,,0.00,meteohub,2013-01-12 19:22:00,
2013-01-12 14:27:00,83.1,71.4,30.09,ENE,67,1.0,5.0,68,0.00,,,0.00,meteohub,2013-01-12 19:27:00,
2013-01-12 14:32:00,83.3,71.2,30.09,ENE,67,0.0,5.0,67,0.00,,,0.00,meteohub,2013-01-12 19:32:00,
2013-01-12 14:37:00,83.5,70.5,30.09,ENE,67,1.0,5.0,65,0.00,,,0.00,meteohub,2013-01-12 19:37:00,
2013-01-12 14:42:00,83.8,70.9,30.09,ENE,72,0.0,4.0,65,0.00,,,0.00,meteohub,2013-01-12 19:42:00,
2013-01-12 14:47:00,83.8,70.3,30.09,ENE,68,0.0,4.0,64,0.00,,,0.00,meteohub,2013-01-12 19:47:00,
2013-01-12 14:52:00,83.8,70.3,30.09,ENE,68,3.0,4.0,64,0.00,,,0.00,meteohub,2013-01-12 19:52:00,
2013-01-12 14:57:00,84.0,70.5,30.09,ENE,68,1.0,4.0,64,0.00,,,0.00,meteohub,2013-01-12 19:57:00,
2013-01-12 15:02:00,84.2,70.7,30.09,ENE,68,2.0,3.0,64,0.00,,,0.00,meteohub,2013-01-12 20:02:00,
2013-01-12 15:07:00,84.4,70.0,30.09,ENE,68,0.0,3.0,62,0.00,,,0.00,meteohub,2013-01-12 20:07:00,
2013-01-12 15:12:00,84.0,69.6,30.09,ENE,70,0.0,3.0,62,0.00,,,0.00,meteohub,2013-01-12 20:12:00,
2013-01-12 15:17:00,83.8,70.0,30.09,East,81,2.0,3.0,63,0.00,,,0.00,meteohub,2013-01-12 20:17:00,
2013-01-12 15:22:00,83.7,69.3,30.09,East,81,0.0,3.0,62,0.00,,,0.00,meteohub,2013-01-12 20:22:00,
2013-01-12 15:27:00,83.3,68.9,30.09,ESE,106,0.0,3.0,62,0.00,,,0.00,meteohub,2013-01-12 20:27:00,
2013-01-12 15:32:00,83.1,68.7,30.10,ENE,74,0.0,3.0,62,0.00,,,0.00,meteohub,2013-01-12 20:32:00,
2013-01-12 15:37:00,83.7,67.8,30.10,NE,49,0.0,2.0,59,0.00,,,0.00,meteohub,2013-01-12 20:37:00,
2013-01-12 15:43:00,84.0,68.2,30.10,ESE,112,0.0,2.0,59,0.00,,,0.00,meteohub,2013-01-12 20:43:00,
2013-01-12 15:48:00,83.8,68.0,30.10,ESE,108,0.0,2.0,59,0.00,,,0.00,meteohub,2013-01-12 20:48:00,
2013-01-12 15:53:00,83.7,68.7,30.09,ESE,107,0.0,2.0,61,0.00,,,0.00,meteohub,2013-01-12 20:53:00,
2013-01-12 15:58:00,83.7,69.3,30.10,ENE,71,0.0,2.0,62,0.00,,,0.00,meteohub,2013-01-12 20:58:00,
2013-01-12 16:03:00,83.5,68.5,30.10,ENE,71,0.0,2.0,61,0.00,,,0.00,meteohub,2013-01-12 21:03:00,
2013-01-12 16:08:00,83.5,67.6,30.10,ENE,71,0.0,2.0,59,0.00,,,0.00,meteohub,2013-01-12 21:08:00,
2013-01-12 16:13:00,83.7,67.8,30.10,ENE,71,0.0,2.0,59,0.00,,,0.00,meteohub,2013-01-12 21:13:00,
2013-01-12 16:18:00,83.7,69.3,30.10,ENE,71,0.0,1.0,62,0.00,,,0.00,meteohub,2013-01-12 21:18:00,
2013-01-12 16:23:00,83.5,68.5,30.11,ENE,71,0.0,1.0,61,0.00,,,0.00,meteohub,2013-01-12 21:23:00,
2013-01-12 16:28:00,83.1,68.7,30.11,ENE,71,0.0,1.0,62,0.00,,,0.00,meteohub,2013-01-12 21:28:00,
2013-01-12 16:33:00,81.7,69.3,30.10,ENE,67,4.0,4.0,66,0.00,,,0.00,meteohub,2013-01-12 21:33:00,
2013-01-12 16:38:00,80.1,68.9,30.10,West,274,3.0,4.0,69,0.00,,,0.00,meteohub,2013-01-12 21:38:00,
2013-01-12 16:43:00,79.2,68.9,30.11,WNW,299,3.0,5.0,71,0.00,,,0.00,meteohub,2013-01-12 21:43:00,
2013-01-12 16:49:00,78.8,69.1,30.11,WNW,288,2.0,5.0,72,0.00,,,0.00,meteohub,2013-01-12 21:49:00,
2013-01-12 16:54:00,78.6,68.9,30.11,WSW,251,5.0,6.0,72,0.00,,,0.00,meteohub,2013-01-12 21:54:00,
2013-01-12 16:59:00,78.1,68.7,30.11,West,270,3.0,6.0,73,0.00,,,0.00,meteohub,2013-01-12 21:59:00,
2013-01-12 17:04:00,77.7,68.7,30.11,West,267,2.0,7.0,74,0.00,,,0.00,meteohub,2013-01-12 22:04:00,
2013-01-12 17:09:00,77.5,68.5,30.10,WSW,252,1.0,7.0,74,0.00,,,0.00,meteohub,2013-01-12 22:09:00,
2013-01-12 17:14:00,77.5,68.9,30.11,WSW,252,0.0,7.0,75,0.00,,,0.00,meteohub,2013-01-12 22:14:00,
2013-01-12 17:19:00,77.4,68.9,30.11,WSW,252,2.0,5.0,75,0.00,,,0.00,meteohub,2013-01-12 22:19:00,
2013-01-12 17:24:00,76.8,68.4,30.11,WSW,253,0.0,5.0,75,0.00,,,0.00,meteohub,2013-01-12 22:24:00,
2013-01-12 17:30:00,76.5,68.4,30.11,WSW,254,1.0,5.0,76,0.00,,,0.00,meteohub,2013-01-12 22:30:00,
2013-01-12 17:35:00,75.9,68.2,30.11,WSW,254,1.0,5.0,77,0.00,,,0.00,meteohub,2013-01-12 22:35:00,
2013-01-12 17:40:00,75.6,68.2,30.11,WSW,257,0.0,4.0,78,0.00,,,0.00,meteohub,2013-01-12 22:40:00,
2013-01-12 17:45:00,75.4,68.4,30.11,WSW,257,2.0,4.0,79,0.00,,,0.00,meteohub,2013-01-12 22:45:00,
2013-01-12 17:50:00,74.8,67.8,30.11,WSW,257,1.0,4.0,79,0.00,,,0.00,meteohub,2013-01-12 22:50:00,
2013-01-12 17:55:00,74.8,68.2,30.11,WSW,257,0.0,3.0,80,0.00,,,0.00,meteohub,2013-01-12 22:55:00,
2013-01-12 18:00:00,74.7,68.0,30.11,WSW,257,0.0,4.0,80,0.00,,,0.00,meteohub,2013-01-12 23:00:00,
2013-01-12 18:05:00,74.5,68.2,30.11,WSW,257,0.0,4.0,81,0.00,,,0.00,meteohub,2013-01-12 23:05:00,
2013-01-12 18:11:00,74.3,68.0,30.11,WSW,257,0.0,0.0,81,0.00,,,0.00,meteohub,2013-01-12 23:11:00,
2013-01-12 18:16:00,74.1,68.0,30.12,WSW,257,0.0,2.0,81,0.00,,,0.00,meteohub,2013-01-12 23:16:00,
2013-01-12 18:21:00,73.8,68.0,30.12,WSW,257,0.0,2.0,82,0.00,,,0.00,meteohub,2013-01-12 23:21:00,
2013-01-12 18:26:00,73.8,68.0,30.12,WSW,257,0.0,2.0,82,0.00,,,0.00,meteohub,2013-01-12 23:26:00,
2013-01-12 18:31:00,73.6,67.8,30.12,WSW,257,0.0,1.0,82,0.00,,,0.00,meteohub,2013-01-12 23:31:00,
2013-01-12 18:36:00,73.6,68.2,30.12,WSW,257,1.0,1.0,83,0.00,,,0.00,meteohub,2013-01-12 23:36:00,
2013-01-12 18:41:00,73.2,67.8,30.12,WSW,257,0.0,1.0,83,0.00,,,0.00,meteohub,2013-01-12 23:41:00,
2013-01-12 18:47:00,73.0,67.6,30.12,WSW,257,1.0,2.0,83,0.00,,,0.00,meteohub,2013-01-12 23:47:00,
2013-01-12 18:52:00,72.9,67.8,30.12,WSW,257,0.0,2.0,84,0.00,,,0.00,meteohub,2013-01-12 23:52:00,
2013-01-12 18:57:00,72.7,67.6,30.12,WSW,257,0.0,1.0,84,0.00,,,0.00,meteohub,2013-01-12 23:57:00,
2013-01-12 19:02:00,72.5,67.8,30.12,WSW,257,0.0,1.0,85,0.00,,,0.00,meteohub,2013-01-13 00:02:00,
2013-01-12 19:07:00,72.5,67.8,30.11,WSW,257,0.0,0.0,85,0.00,,,0.00,meteohub,2013-01-13 00:07:00,
2013-01-12 19:12:00,72.3,67.6,30.12,West,265,0.0,0.0,85,0.00,,,0.00,meteohub,2013-01-13 00:12:00,
2013-01-12 19:17:00,72.1,67.5,30.11,West,265,0.0,3.0,85,0.00,,,0.00,meteohub,2013-01-13 00:17:00,
2013-01-12 19:22:00,72.1,67.5,30.11,West,265,0.0,3.0,85,0.00,,,0.00,meteohub,2013-01-13 00:22:00,
2013-01-12 19:27:00,72.1,67.6,30.11,West,265,0.0,1.0,86,0.00,,,0.00,meteohub,2013-01-13 00:27:00,
2013-01-12 19:32:00,72.0,67.5,30.11,West,265,0.0,0.0,86,0.00,,,0.00,meteohub,2013-01-13 00:32:00,
2013-01-12 19:37:00,72.0,67.5,30.11,West,265,0.0,0.0,86,0.00,,,0.00,meteohub,2013-01-13 00:37:00,
2013-01-12 19:42:00,72.0,67.5,30.11,West,265,0.0,1.0,86,0.00,,,0.00,meteohub,2013-01-13 00:42:00,
2013-01-12 19:48:00,71.8,67.3,30.11,West,265,0.0,1.0,86,0.00,,,0.00,meteohub,2013-01-13 00:48:00,
2013-01-12 19:53:00,71.8,67.6,30.11,West,265,0.0,1.0,87,0.00,,,0.00,meteohub,2013-01-13 00:53:00,
2013-01-12 19:58:00,71.4,67.3,30.11,West,265,0.0,0.0,87,0.00,,,0.00,meteohub,2013-01-13 00:58:00,
2013-01-12 20:03:00,71.2,67.1,30.11,West,265,0.0,0.0,87,0.00,,,0.00,meteohub,2013-01-13 01:03:00,
2013-01-12 20:08:00,71.2,67.1,30.10,West,265,0.0,0.0,87,0.00,,,0.00,meteohub,2013-01-13 01:08:00,
2013-01-12 20:13:00,71.1,67.3,30.10,West,265,0.0,0.0,88,0.00,,,0.00,meteohub,2013-01-13 01:13:00,
2013-01-12 20:18:00,71.1,67.3,30.10,West,265,0.0,0.0,88,0.00,,,0.00,meteohub,2013-01-13 01:18:00,
2013-01-12 20:23:00,71.1,67.3,30.10,West,265,0.0,0.0,88,0.00,,,0.00,meteohub,2013-01-13 01:23:00,
2013-01-12 20:29:00,71.1,67.3,30.10,West,265,0.0,0.0,88,0.00,,,0.00,meteohub,2013-01-13 01:29:00,
2013-01-12 20:34:00,70.9,67.1,30.10,West,276,0.0,0.0,88,0.00,,,0.00,meteohub,2013-01-13 01:34:00,
2013-01-12 20:39:00,70.9,67.5,30.10,West,276,0.0,4.0,89,0.00,,,0.00,meteohub,2013-01-13 01:39:00,
2013-01-12 20:44:00,70.9,67.5,30.10,West,276,0.0,4.0,89,0.00,,,0.00,meteohub,2013-01-13 01:44:00,
2013-01-12 20:49:00,70.9,67.5,30.09,West,276,0.0,4.0,89,0.00,,,0.00,meteohub,2013-01-13 01:49:00,
2013-01-12 20:54:00,70.9,67.5,30.09,West,276,0.0,2.0,89,0.00,,,0.00,meteohub,2013-01-13 01:54:00,
2013-01-12 20:59:00,70.9,67.8,30.10,West,276,0.0,1.0,90,0.00,,,0.00,meteohub,2013-01-13 01:59:00,
2013-01-12 21:05:00,70.9,67.8,30.10,West,276,0.0,0.0,90,0.00,,,0.00,meteohub,2013-01-13 02:05:00,
2013-01-12 21:10:00,70.9,67.8,30.09,West,276,0.0,1.0,90,0.00,,,0.00,meteohub,2013-01-13 02:10:00,
2013-01-12 21:15:00,70.7,67.6,30.09,West,276,0.0,1.0,90,0.00,,,0.00,meteohub,2013-01-13 02:15:00,
2013-01-12 21:20:00,70.5,67.5,30.09,West,276,0.0,1.0,90,0.00,,,0.00,meteohub,2013-01-13 02:20:00,
2013-01-12 21:25:00,70.5,67.8,30.09,West,276,0.0,1.0,91,0.00,,,0.00,meteohub,2013-01-13 02:25:00,
2013-01-12 21:30:00,70.5,67.8,30.09,West,276,0.0,1.0,91,0.00,,,0.00,meteohub,2013-01-13 02:30:00,
2013-01-12 21:35:00,70.5,67.8,30.09,West,276,0.0,1.0,91,0.00,,,0.00,meteohub,2013-01-13 02:35:00,
2013-01-12 21:40:00,70.5,67.5,30.09,West,276,0.0,1.0,90,0.00,,,0.00,meteohub,2013-01-13 02:40:00,
2013-01-12 21:46:00,70.5,67.8,30.09,West,276,0.0,1.0,91,0.00,,,0.00,meteohub,2013-01-13 02:46:00,
2013-01-12 21:51:00,70.3,67.3,30.09,West,276,0.0,1.0,90,0.00,,,0.00,meteohub,2013-01-13 02:51:00,
2013-01-12 21:56:00,70.3,67.6,30.09,West,276,0.0,1.0,91,0.00,,,0.00,meteohub,2013-01-13 02:56:00,
2013-01-12 22:01:00,70.3,67.6,30.09,West,276,0.0,1.0,91,0.00,,,0.00,meteohub,2013-01-13 03:01:00,
2013-01-12 22:06:00,70.3,67.6,30.09,West,276,0.0,1.0,91,0.00,,,0.00,meteohub,2013-01-13 03:06:00,
2013-01-12 22:11:00,70.3,67.6,30.09,West,276,0.0,1.0,91,0.00,,,0.00,meteohub,2013-01-13 03:11:00,
2013-01-12 22:16:00,70.2,67.5,30.09,West,276,0.0,0.0,91,0.00,,,0.00,meteohub,2013-01-13 03:16:00,
2013-01-12 22:21:00,70.0,67.3,30.09,West,276,0.0,1.0,91,0.00,,,0.00,meteohub,2013-01-13 03:21:00,
2013-01-12 22:26:00,70.0,67.3,30.10,West,276,0.0,1.0,91,0.00,,,0.00,meteohub,2013-01-13 03:26:00,
2013-01-12 22:32:00,70.0,67.5,30.10,West,276,0.0,1.0,92,0.00,,,0.00,meteohub,2013-01-13 03:32:00,
2013-01-12 22:37:00,69.8,67.3,30.10,West,276,0.0,1.0,92,0.00,,,0.00,meteohub,2013-01-13 03:37:00,
2013-01-12 22:42:00,69.8,67.3,30.10,West,276,0.0,0.0,92,0.00,,,0.00,meteohub,2013-01-13 03:42:00,
2013-01-12 22:47:00,69.6,67.3,30.10,West,276,0.0,1.0,92,0.00,,,0.00,meteohub,2013-01-13 03:47:00,
2013-01-12 22:52:00,69.8,67.3,30.10,West,276,0.0,2.0,92,0.00,,,0.00,meteohub,2013-01-13 03:52:00,
2013-01-12 22:57:00,70.3,68.2,30.10,ESE,104,9.0,9.0,93,0.00,,,0.00,meteohub,2013-01-13 03:57:00,
2013-01-12 23:02:00,70.9,68.2,30.10,East,101,11.0,11.0,91,0.00,,,0.00,meteohub,2013-01-13 04:02:00,
2013-01-12 23:07:00,71.4,68.0,30.10,East,90,10.0,15.0,89,0.00,,,0.00,meteohub,2013-01-13 04:07:00,
2013-01-12 23:12:00,71.8,68.0,30.10,East,91,10.0,16.0,88,0.00,,,0.00,meteohub,2013-01-13 04:12:00,
2013-01-12 23:17:00,71.8,68.0,30.09,East,80,13.0,16.0,88,0.00,,,0.00,meteohub,2013-01-13 04:17:00,
2013-01-12 23:22:00,72.1,68.0,30.09,ENE,72,17.0,18.0,87,0.00,,,0.00,meteohub,2013-01-13 04:22:00,
2013-01-12 23:27:00,72.7,67.8,30.10,East,101,14.0,20.0,85,0.00,,,0.00,meteohub,2013-01-13 04:27:00,
2013-01-12 23:32:00,72.7,68.2,30.10,East,97,11.0,20.0,86,0.00,,,0.00,meteohub,2013-01-13 04:32:00,
2013-01-12 23:37:00,72.7,68.2,30.10,ENE,61,5.0,20.0,86,0.00,,,0.00,meteohub,2013-01-13 04:37:00,
2013-01-12 23:42:00,72.3,67.6,30.10,ENE,71,14.0,19.0,85,0.00,,,0.00,meteohub,2013-01-13 04:42:00,
2013-01-12 23:47:00,72.5,67.8,30.10,ENE,67,9.0,20.0,85,0.00,,,0.00,meteohub,2013-01-13 04:47:00,
2013-01-12 23:52:00,72.3,67.3,30.10,East,101,18.0,20.0,84,0.00,,,0.00,meteohub,2013-01-13 04:52:00,
2013-01-12 23:57:00,72.3,67.6,30.10,East,94,10.0,20.0,85,0.00,,,0.00,meteohub,2013-01-13 04:57:00,